Tracking 19817 objects as of 17-Aug-2019
HD Live streaming from Space Station
objects crossing your sky now

FENGYUN 1C DEB

Track FENGYUN 1C DEB now!
10-day predictions


NORAD ID: 29890
Int'l Code: 1999-025GL
Perigee: 839.3 km
Apogee: 869.3 km
Inclination: 99.5 °
Period: 101.9 minutes
Semi major axis: 7225 km
RCS: 0.052 m2 (small)
Launch date: May 10, 1999
Source: People's Republic of China (PRC)
Launch site: Taiyaun Space Center, China (TSC)

Note: This is SATELLITE DEBRIS
aabbcc
Your satellite tracking list
Your tracking list is empty




NASA's NSSDC Master Catalog

Two Line Element Set (TLE):
1 29890U 99025GL  19229.07543182  .00000219  00000-0  14192-3 0  9998
2 29890  99.4628 166.5120 0020782  49.3252 310.9720 14.13571388647632
Source of the keplerian elements: AFSPC